[[{"header":{"parameterUnit":"m.s-1","parameterCategory":1,"la1":30.2991,"la2":30.254,"lo1":-89.0895,"lo2":-89.0444,"dy":0.0017,"dx":0.0017,"nx":28,"ny":28,"refTime":"2025-03-13T09:00:00:Z","depth":0,"parameterNumber":2,"parameterNumberName":"U-component_of_WINDS"},"data":[0,0,0,0,0,0,0,0,0,0,0,0,0,0,0,0,0,0,0,0,0,0,0,0,0,0,0,0,0,0,0,0,0,0,0,0,0,0,0,0,0,0,0,0,0,0,0,0,0,0,0,0,0,0,0,0,0,0,1.0156,1.0156,0,1.0166,1.0166,1.0166,1.0133,1.0132,1.0131,1.013,1.0138,1.014,1.0141,0,0,0,0,0,0,0,0,0,0,0,0,0,1.0106,1.0107,1.0156,1.0156,1.0156,1.0166,1.0166,1.0166,1.0133,1.0132,1.0131,1.013,1.0138,1.0139,1.0141,0,0,0,0,0,0,0,0,0,0,0,0,0,1.0123,1.0108,1.0156,1.0141,1.014,1.0166,1.0166,1.0166,1.0134,1.0132,1.0131,1.0129,1.0138,1.0139,1.0141,1.0181,0,0,1.0146,1.0147,0,0,0,0,0,0,0,0,1.0122,1.0125,1.0143,1.0142,1.0141,1.0147,1.0151,1.0171,1.0134,1.0136,1.013,1.0129,1.0142,1.0143,1.0149,1.0181,1.0182,1.0146,1.0147,1.0148,1.0149,0,0,0,0,0,0,0,1.0121,1.0124,1.016,1.0143,1.0142,1.0133,1.0134,1.0155,1.0147,1.0136,1.0133,1.0135,1.0141,1.0147,1.0148,1.0182,1.0146,1.0148,1.0149,1.0149,1.0247,1.0249,0,0,0,0,0,0,1.0122,1.0124,1.0159,1.016,1.0128,1.0135,1.0136,1.0146,1.0147,1.0146,1.0136,1.0133,1.0145,1.0147,1.0149,1.0195,1.0148,1.015,1.0151,1.0246,1.0248,1.025,0,0,0,0,0,0,1.0121,1.0126,1.0159,1.0141,1.0145,1.0138,1.0149,1.0147,1.0153,1.0147,1.0146,1.0144,1.0144,1.0146,1.0173,1.0195,1.015,1.0152,1.0244,1.0246,1.0249,1.0289,0,0,0,0,0,0,1.012,1.0126,1.0141,1.0142,1.0146,1.0184,1.0151,1.0148,1.0156,1.0153,1.0154,1.0153,1.0143,1.0171,1.0175,1.0197,1.0153,1.0242,1.0245,1.0248,1.0286,1.0293,1.0299,0,0,0,0,0,1.0118,1.0152,1.0142,1.0147,1.0165,1.0185,1.0188,1.0176,1.0158,1.0173,1.017,1.0152,1.0192,1.0174,1.0178,1.0201,1.0241,1.0244,1.0248,1.0283,1.0291,1.0298,0,0,0,0,0,0,1.0153,1.0152,1.0141,1.0176,1.0181,1.018,1.0199,1.0185,1.0195,1.0192,1.0176,1.0177,1.0207,1.0206,1.0186,1.0239,1.0213,1.0218,1.0239,1.0246,1.0253,1.0252,1.0155,0,0,0,0,0,1.0165,1.0182,1.018,1.021,1.0214,1.0206,1.0214,1.0205,1.021,1.0212,1.021,1.0215,1.0228,1.0237,1.0249,1.0286,1.0285,1.0303,1.031,1.0315,1.0319,1.0338,1.0346,1.0261,1.0261,1.0261,0,0,1.0189,1.0191,1.0202,1.0218,1.0221,1.0238,1.0208,1.0228,1.024,1.0214,1.024,1.0239,1.0243,1.0275,1.0289,1.0276,1.0342,1.0319,1.0324,1.0325,1.0343,1.0351,1.0358,1.0264,1.0263,1.0263,0,0,1.0243,1.0246,1.0272,1.0276,1.0281,1.0276,1.0282,1.0283,1.0281,1.0307,1.0288,1.0302,1.0326,1.0329,1.0334,1.0389,1.0374,1.0394,1.0427,1.0445,1.0452,1.0458,1.0477,1.0485,1.0398,1.0398,1.0398,0,1.0272,1.0299,1.0287,1.0308,1.0315,1.0293,1.0319,1.0323,1.0332,1.0337,1.0322,1.0351,1.0352,1.0385,1.0398,1.0403,1.0409,1.0393,1.0452,1.0458,1.0463,1.0482,1.0489,1.04,1.04,1.04,1.04,0,1.0335,1.0353,1.0373,1.0383,1.0392,1.0416,1.0407,1.0418,1.0408,1.0404,1.043,1.043,1.0442,1.0449,1.0439,1.048,1.0472,1.0455,1.0428,1.0474,1.0491,1.0498,1.0404,1.0403,1.0402,1.0402,0,0,1.041,1.0413,1.0421,1.0425,1.0429,1.0443,1.0465,1.0478,1.0487,1.0494,1.0512,1.0532,1.0516,1.0522,1.0512,1.0529,1.0572,1.051,1.051,1.0521,1.0617,1.063,1.0639,1.0562,1.0563,1.0565,1.0617,0,1.0463,1.0502,1.0491,1.053,1.0547,1.0526,1.0545,1.055,1.0546,1.056,1.0556,1.0571,1.0549,1.0552,1.0568,1.0564,1.0591,1.056,1.0578,1.0579,1.0578,1.0647,1.0661,1.071,1.0624,1.0625,1.0626,0,1.0529,1.0539,1.058,1.0581,1.0588,1.0606,1.0616,1.0629,1.0633,1.063,1.0636,1.0623,1.0645,1.0618,1.0647,1.0626,1.0632,1.0632,1.0633,1.0635,1.0605,1.065,1.0726,1.0733,1.0636,1.0635,1.0634,0,1.058,1.0604,1.0631,1.0635,1.0638,1.065,1.0652,1.0655,1.0663,1.0672,1.0677,1.0688,1.0694,1.0702,1.0692,1.0674,1.0723,1.0695,1.072,1.072,1.0731,1.073,1.0809,1.0736,1.0736,1.0736,1.0735,0,1.0639,1.0665,1.0654,1.067,1.0698,1.0686,1.0714,1.0713,1.0716,1.0731,1.0714,1.0729,1.0715,1.0728,1.0721,1.0746,1.0749,1.0746,1.0744,1.0748,1.0748,1.0752,1.0748,1.0737,1.0737,1.0737,1.0736,0,1.0701,1.0694,1.0723,1.0723,1.0724,1.0744,1.0744,1.0759,1.0755,1.0775,1.0779,1.0772,1.0787,1.0778,1.0794,1.0788,1.0821,1.0814,1.082,1.0818,1.0843,1.0841,1.0926,1.0937,1.0857,1.0858,1.0859,0,1.0739,1.0758,1.0761,1.0771,1.0774,1.079,1.0798,1.0787,1.0796,1.0802,1.0817,1.083,1.0841,1.0866,1.0862,1.0873,1.0866,1.0895,1.0868,1.0871,1.0866,1.0865,1.0867,1.0901,1.0902,1.0902,1.0903,0,1.0808,1.0804,1.0817,1.0829,1.084,1.0849,1.0856,1.0865,1.0853,1.0864,1.088,1.0888,1.0904,1.0918,1.0928,1.0928,1.0914,1.0912,1.0918,1.0922,1.0925,1.0924,1.0835,1.091,1.0909,1.0909,1.0908,1.0908,1.0859,1.0875,1.0879,1.0895,1.0899,1.0906,1.0921,1.0919,1.0932,1.0944,1.0937,1.0955,1.0959,1.097,1.0973,1.0987,1.0975,1.0984,1.0986,1.0989,1.0992,1.0923,1.0989,1.0988,1.0988,1.0988,1.0988,0,1.0926,1.0928,1.0942,1.0954,1.0966,1.0952,1.0959,1.097,1.0986,1.0991,1.1002,1.102,1.1033,1.1031,1.1043,1.1054,1.1048,1.1058,1.1056,1.1057,1.1002,1.0996,1.1063,1.1063,1.1063,1.1063,1.1063,1.1062,1.0963,1.0989,1.0986,1.1015,1.1016,1.1035,1.104,1.1047,1.1051,1.1072,1.1083,1.1081,1.1083,1.1095,1.1107,1.1105,1.111,1.1123,1.1119,1.1068,1.1061,1.1054,1.1047,1.1124,1.1124,1.1172,1.1173,1.1173]},{"header":{"parameterUnit":"m.s-1","parameterCategory":1,"la1":30.2991,"la2":30.254,"lo1":-89.0895,"lo2":-89.0444,"dy":0.0017,"dx":0.0017,"nx":28,"ny":28,"refTime":"2025-03-13T09:00:00:Z","depth":0,"parameterNumber":3,"parameterNumberName":"V-component_of_WINDS"},"data":[0,0,0,0,0,0,0,0,0,0,0,0,0,0,0,0,0,0,0,0,0,0,0,0,0,0,0,0,0,0,0,0,0,0,0,0,0,0,0,0,0,0,0,0,0,0,0,0,0,0,0,0,0,0,0,0,0,0,2.4538,2.4538,0,2.4507,2.4507,2.4506,2.4456,2.4455,2.4454,2.4454,2.4424,2.4424,2.4424,0,0,0,0,0,0,0,0,0,0,0,0,0,2.4556,2.4556,2.4538,2.4538,2.4538,2.4507,2.4507,2.4506,2.4456,2.4455,2.4454,2.4453,2.4424,2.4424,2.4424,0,0,0,0,0,0,0,0,0,0,0,0,0,2.4539,2.4556,2.4538,2.4509,2.4506,2.4507,2.4507,2.4506,2.4457,2.4455,2.4454,2.4453,2.4424,2.4424,2.4424,2.4452,0,0,2.4424,2.4424,0,0,0,0,0,0,0,0,2.454,2.4538,2.4514,2.4511,2.4508,2.4484,2.4502,2.4488,2.4457,2.4475,2.4454,2.4452,2.4445,2.4443,2.444,2.445,2.4449,2.4424,2.4424,2.4424,2.4424,0,0,0,0,0,0,0,2.4541,2.4539,2.4526,2.4513,2.451,2.4498,2.4494,2.4499,2.4468,2.4474,2.447,2.4467,2.4443,2.444,2.4439,2.4449,2.4424,2.4424,2.4424,2.4424,2.448,2.4482,0,0,0,0,0,0,2.4546,2.4541,2.4527,2.4525,2.4521,2.4498,2.4494,2.4493,2.4468,2.4463,2.4468,2.4465,2.4441,2.4439,2.4438,2.447,2.4424,2.4424,2.4424,2.4479,2.448,2.4482,0,0,0,0,0,0,2.4547,2.4546,2.4528,2.4532,2.4529,2.45,2.4499,2.4493,2.4491,2.4464,2.4458,2.4471,2.444,2.4438,2.4449,2.4468,2.4424,2.4424,2.4477,2.4479,2.4481,2.4533,0,0,0,0,0,0,2.4548,2.4546,2.4556,2.4532,2.4529,2.4539,2.45,2.4494,2.4491,2.4486,2.4465,2.446,2.4439,2.4449,2.4449,2.4467,2.4424,2.4475,2.4478,2.4481,2.453,2.4537,2.4543,0,0,0,0,0,2.4548,2.4573,2.4557,2.4556,2.4541,2.454,2.4538,2.4512,2.4492,2.4503,2.4485,2.4461,2.4466,2.445,2.445,2.4469,2.4474,2.4477,2.448,2.4527,2.4535,2.4543,0,0,0,0,0,0,2.4601,2.4569,2.4551,2.4569,2.4557,2.4532,2.4544,2.4522,2.4517,2.4513,2.4481,2.4477,2.4492,2.4481,2.4465,2.4495,2.4466,2.4469,2.4501,2.4509,2.4516,2.4519,2.4424,0,0,0,0,0,2.4614,2.4616,2.4588,2.4606,2.4601,2.4574,2.4573,2.4553,2.4541,2.4536,2.4519,2.4509,2.4508,2.4508,2.4505,2.4527,2.4522,2.454,2.4547,2.4552,2.4556,2.4567,2.4575,2.4493,2.4493,2.4493,0,0,2.4642,2.4625,2.4628,2.4616,2.4605,2.4608,2.457,2.4575,2.4577,2.4537,2.4546,2.4533,2.4519,2.4536,2.4542,2.4527,2.4577,2.4556,2.4561,2.4562,2.4571,2.4579,2.4586,2.4495,2.4494,2.4494,0,0,2.4695,2.4682,2.4695,2.4684,2.4668,2.4649,2.4653,2.463,2.462,2.4628,2.4598,2.46,2.4599,2.459,2.4586,2.4634,2.4611,2.4634,2.4669,2.468,2.4687,2.4692,2.471,2.4717,2.4637,2.4637,2.4637,0,2.4732,2.4735,2.4705,2.4711,2.4707,2.4669,2.4683,2.4675,2.4659,2.4657,2.464,2.4637,2.4625,2.4639,2.4651,2.4648,2.4651,2.4637,2.4688,2.4693,2.4698,2.4715,2.4722,2.464,2.464,2.464,2.4639,0,2.4781,2.4784,2.4796,2.4781,2.4778,2.4788,2.476,2.4761,2.4741,2.4725,2.4734,2.4717,2.4711,2.4713,2.4694,2.4724,2.4715,2.4694,2.4665,2.4709,2.4725,2.4731,2.4644,2.4643,2.4642,2.4642,0,0,2.4867,2.4834,2.484,2.4832,2.4811,2.4813,2.4821,2.4814,2.4815,2.4805,2.4812,2.4811,2.479,2.4785,2.4765,2.4775,2.4815,2.4752,2.4751,2.4765,2.4847,2.4865,2.4873,2.4799,2.48,2.4801,2.4849,0,2.4916,2.4929,2.4901,2.492,2.4923,2.4886,2.4893,2.4881,2.4866,2.4866,2.4848,2.4848,2.4821,2.4818,2.4826,2.4808,2.4831,2.4804,2.4806,2.4806,2.4812,2.488,2.4899,2.4945,2.4855,2.4855,2.4856,0,2.4976,2.4968,2.4987,2.4964,2.4964,2.4971,2.4962,2.4962,2.4947,2.4935,2.4929,2.4905,2.4912,2.4883,2.4892,2.4875,2.4874,2.4865,2.4866,2.4866,2.4835,2.4883,2.4959,2.4966,2.4865,2.4864,2.4864,0,2.5038,2.5032,2.5042,2.5037,2.501,2.5016,2.5005,2.4989,2.4987,2.4979,2.4977,2.497,2.4967,2.4963,2.4938,2.4919,2.4951,2.4919,2.4941,2.4942,2.4951,2.4951,2.5028,2.4948,2.4948,2.4948,2.4948,0,2.5096,2.511,2.507,2.5077,2.509,2.5059,2.5073,2.5059,2.5045,2.5049,2.5016,2.5021,2.4987,2.4987,2.4968,2.4979,2.4977,2.4968,2.4963,2.4972,2.4973,2.4972,2.4968,2.495,2.495,2.4949,2.4949,0,2.5168,2.5142,2.5151,2.5125,2.5119,2.513,2.5108,2.5113,2.5094,2.5099,2.5099,2.507,2.5069,2.5043,2.5037,2.5024,2.5043,2.5032,2.5048,2.5045,2.5069,2.5068,2.5149,2.5158,2.5072,2.5073,2.5073,0,2.5208,2.5217,2.5191,2.5191,2.5182,2.5182,2.5179,2.5148,2.5146,2.5129,2.5137,2.5133,2.5128,2.5128,2.5107,2.5102,2.5091,2.512,2.509,2.5099,2.5093,2.5093,2.5094,2.5127,2.5128,2.5129,2.5129,0,2.5281,2.5268,2.5264,2.5256,2.5253,2.5245,2.5235,2.5237,2.5203,2.5203,2.5201,2.5197,2.519,2.5187,2.5177,2.5167,2.5143,2.5138,2.5144,2.5153,2.5163,2.5159,2.5067,2.5137,2.5136,2.5136,2.5135,2.5135,2.5339,2.5346,2.5328,2.5325,2.5315,2.5306,2.531,2.5291,2.5289,2.528,2.5262,2.5263,2.5248,2.5233,2.5224,2.5225,2.521,2.5218,2.522,2.5222,2.5227,2.5162,2.5223,2.5223,2.5222,2.5222,2.5222,0,2.5412,2.5399,2.5396,2.5383,2.5381,2.5357,2.5344,2.5344,2.5345,2.5333,2.5328,2.5326,2.5323,2.5301,2.5295,2.53,2.5289,2.53,2.53,2.5298,2.524,2.5237,2.5309,2.5309,2.5309,2.5309,2.5309,2.5309,2.5449,2.5459,2.5444,2.5448,2.5434,2.5434,2.543,2.5422,2.5411,2.541,2.5407,2.5392,2.5376,2.5369,2.5364,2.5358,2.5358,2.5373,2.5363,2.531,2.5302,2.5294,2.5291,2.5373,2.5373,2.5421,2.5421,2.5422]}]]